Location: Pedholt
(56.0260°N, 10.2097°E)
Time: 07:46:18
(UTC+00:00)

Transit 2A Rocket - Pass Details

Date: 06 August 2021
Orbit: 586 x 917 km, 66.7° (Epoch: 24 September)

Event Time Altitude Azimuth Distance (km) Brightness Sun altitude
Rises 18:53:44 0° 313° (NW) 3,171 10.1 1.9°
Reaches altitude 10° 18:56:05 10° 318° (NW) 2,298 9.0 1.6°
Maximum altitude 19:01:15 52° 35° (NE) 1,001 5.7 1.0°
Drops below altitude 10° 19:06:54 10° 112° (ESE) 2,497 7.0 0.3°
Enters shadow 19:09:28 - 117° (ESE) 3,443 7.7 0.0°
Sets 19:09:33 0° 117° (ESE) 3,471 - -0.1°
